This is the latest recevied weather packets stored in our database for station/object 4S6DRJ-13. If no packets are shown the sender has not sent any weather packets the latest 10 day(s).
| Time | Temp. | Humidity | Pressure | Rain* | Wind** | Luminosity | Snow |
|---|---|---|---|---|---|---|---|
| 1787591292 | 28.33° C | 84% | 1011.8 hPa | 0.25 mm | 0.89 m/s, 281° | 0 W/m² | - |
| 1787591232 | 28.33° C | 83% | 1012 hPa | 0 mm | 0.45 m/s, 252° | 0 W/m² | - |
| 1787591170 | 28.33° C | 83% | 1011.6 hPa | 0 mm | 0.89 m/s, 231° | 0 W/m² | - |
| 1787591110 | 28.33° C | 83% | 1011.7 hPa | 0 mm | 0.89 m/s, 200° | 0 W/m² | - |
| 1787591048 | 28.33° C | 83% | 1011.7 hPa | 0 mm | 0.45 m/s, 239° | 0 W/m² | - |
| 1787590987 | 28.33° C | 83% | 1011.8 hPa | 0 mm | 1.34 m/s, 261° | 0 W/m² | - |
| 1787590926 | 28.33° C | 83% | 1011.9 hPa | 0 mm | 0.45 m/s, 223° | 0 W/m² | - |
| 1787590866 | 28.33° C | 83% | 1012 hPa | 0 mm | 0.45 m/s, 251° | 0 W/m² | - |
| 1787590806 | 28.33° C | 83% | 1011.8 hPa | 0 mm | 1.79 m/s, 225° | 0 W/m² | - |
| 1787590743 | 28.33° C | 83% | 1011.8 hPa | 0 mm | 0.89 m/s, 231° | 0 W/m² | - |
| 1787590683 | 28.33° C | 83% | 1011.8 hPa | 0 mm | 1.79 m/s, 222° | 0 W/m² | - |
| 1787590621 | 28.33° C | 83% | 1011.9 hPa | 0 mm | 0.89 m/s, 237° | 0 W/m² | - |
| 1787590560 | 28.33° C | 83% | 1011.8 hPa | 0 mm | 1.79 m/s, 225° | 0 W/m² | - |
| 1787590499 | 28.33° C | 83% | 1011.8 hPa | 0 mm | 0.89 m/s, 316° | 0 W/m² | - |
| 1787590439 | 28.33° C | 83% | 1011.7 hPa | 0 mm | 2.24 m/s, 235° | 0 W/m² | - |
| 1787590377 | 28.33° C | 83% | 1012 hPa | 0 mm | 1.34 m/s, 212° | 0 W/m² | - |
| 1787590256 | 28.33° C | 83% | 1011.6 hPa | 0 mm | 2.24 m/s, 109° | 0 W/m² | - |
| 1787590194 | 28.33° C | 83% | 1011.8 hPa | 0 mm | 1.79 m/s, 237° | 0 W/m² | - |
| 1787590133 | 28.33° C | 83% | 1011.8 hPa | 0 mm | 1.79 m/s, 197° | 0 W/m² | - |
| 1787590072 | 28.33° C | 83% | 1011.6 hPa | 0 mm | 1.34 m/s, 333° | 0 W/m² | - |
| 1787590011 | 28.33° C | 83% | 1012 hPa | 0 mm | 3.13 m/s, 261° | 0 W/m² | - |
| 1787589950 | 28.33° C | 83% | 1011.9 hPa | 0 mm | 0.89 m/s, 163° | 0 W/m² | - |
| 1787589889 | 28.33° C | 83% | 1011.8 hPa | 0 mm | 1.79 m/s, 187° | 0 W/m² | - |
| 1787589829 | 28.33° C | 83% | 1011.7 hPa | 0 mm | 0.89 m/s, 235° | 0 W/m² | - |
| 1787589768 | 28.33° C | 83% | 1011.7 hPa | 0 mm | 0.89 m/s, 209° | 0 W/m² | - |
* Rain latest hour (hover to see other rain measurements)
** Current wind speed in m/s (hover to see current wind gust speed)